Weather History for KHQZ - April, 2014

Change the Weather History Date:

Wednesday, April 9, 2014

  Actual Average (KDFW) Record (KDFW)
Temperature  
Mean Temperature 63 °F 64 °F  
Max Temperature 77 °F 75 °F 97 °F (1963)
Min Temperature 42 °F 53 °F 30 °F (1914)
Degree Days  
Heating Degree Days 2 4  
Month to date heating degree days 40  
Since 1 July heating degree days 2233  
Cooling Degree Days 0 3  
Month to date cooling degree days 19  
Year to date cooling degree days 58  
Growing Degree Days 13 (Base 50)    
Moisture  
Dew Point 41 °F    
Average Humidity 60    
Maximum Humidity 87    
Minimum Humidity 23    
Precipitation  
Precipitation 0.00 in 0.09 in 0.77 in (1926)
Month to date precipitation 0.81  
Year to date precipitation 9.09  
Snow  
Snow 0.00 in 0.00 in 0.00 in ()
Month to date snowfall 0.0  
Since 1 July snowfall 1.2  
Snow Depth -    
Sea Level Pressure  
Sea Level Pressure 30.14 in    
Wind  
Wind Speed 3 mph (SSE)    
Max Wind Speed 16 mph    
Max Gust Speed 23 mph    
Visibility 10 miles    
Events      
T = Trace of Precipitation, MM = Missing Value Source: NWS Daily Summary

Daily Weather History Graph

Daily Weather History Graph

Search for Another Location

Airport or City:

Trip Planner

Search our weather history database for the weather conditions in past years. The results will help you decide how hot, cold, wet, or windy it might be!

Date:

Astronomy

Apr. 09, 2014 Rise Set
Actual Time 7:03 AM CDT 7:51 PM CDT
Civil Twilight 6:38 AM CDT 8:17 PM CDT
Nautical Twilight 6:09 AM CDT 8:46 PM CDT
Astronomical Twilight 5:38 AM CDT 9:17 PM CDT
Moon 2:57 PM CDT (4/9) 3:36 AM CDT (4/9)
Length of Visible Light 13h 38m
Length of Day
12h 48m
Waxing Gibbous, 72% of the Moon is Illuminated
Apr 9
Waxing Gibbous
Apr 15
Full
Apr 22
Last Quarter
Apr 29
New
May 6
First Quarter

Hourly Weather History & Observations

Time (CDT) Temp. Dew Point Humidity Pressure Visibility Wind Dir Wind Speed Gust Speed Precip Events Conditions
12:35 AM 47.1 °F 38.7 °F 72% 30.18 in 10.0 mi Calm Calm - N/A   Clear
12:55 AM 48.6 °F 38.8 °F 69% 30.18 in 10.0 mi Calm Calm - N/A   Clear
1:15 AM 50.2 °F 36.9 °F 60% 30.18 in 10.0 mi Calm Calm - N/A   Clear
1:35 AM 48.2 °F 37.2 °F 66% 30.18 in 10.0 mi Calm Calm - N/A   Clear
1:55 AM 46.4 °F 39.2 °F 76% 30.17 in 10.0 mi Calm Calm - N/A   Clear
2:15 AM 45.9 °F 38.3 °F 75% 30.18 in 10.0 mi Calm Calm - N/A   Clear
2:35 AM 46.2 °F 38.7 °F 75% 30.18 in 10.0 mi Calm Calm - N/A   Clear
2:55 AM 44.2 °F 37.8 °F 78% 30.18 in 10.0 mi Calm Calm - N/A   Clear
3:15 AM 44.1 °F 38.1 °F 80% 30.17 in 10.0 mi Calm Calm - N/A   Clear
3:35 AM 43.2 °F 37.9 °F 82% 30.17 in 10.0 mi Calm Calm - N/A   Clear
3:55 AM 44.6 °F 37.6 °F 76% 30.17 in 10.0 mi Calm Calm - N/A   Clear
4:15 AM 44.6 °F 37.9 °F 77% 30.18 in 10.0 mi Calm Calm - N/A   Clear
4:35 AM 44.4 °F 38.3 °F 79% 30.18 in 10.0 mi Calm Calm - N/A   Clear
4:55 AM 43.2 °F 37.9 °F 82% 30.18 in 10.0 mi Calm Calm - N/A   Clear
5:15 AM 42.3 °F 38.3 °F 86% 30.19 in 10.0 mi Calm Calm - N/A   Clear
5:35 AM 42.4 °F 38.7 °F 86% 30.19 in 10.0 mi Calm Calm - N/A   Clear
7:55 AM 42.8 °F 39.2 °F 87% 30.22 in 10.0 mi Calm Calm - N/A   Clear
8:55 AM 50.0 °F 42.8 °F 76% 30.23 in 10.0 mi SSE 4.6 mph - N/A   Clear
9:55 AM 59.0 °F 42.8 °F 55% 30.24 in 10.0 mi SSE 3.5 mph - N/A   Clear
10:55 AM 66.2 °F 39.2 °F 37% 30.25 in 10.0 mi South 8.1 mph - N/A   Clear
11:55 AM 69.8 °F 42.8 °F 38% 30.24 in 10.0 mi South 11.5 mph - N/A   Clear
12:55 PM 71.6 °F 39.2 °F 31% 30.21 in 10.0 mi SSE 12.7 mph - N/A   Clear
1:55 PM 73.4 °F 41.0 °F 31% 30.17 in 10.0 mi SSE 13.8 mph 18.4 mph N/A   Clear
2:55 PM 75.2 °F 42.8 °F 31% 30.14 in 10.0 mi South 15.0 mph 18.4 mph N/A   Clear
3:55 PM 75.2 °F 44.6 °F 34% 30.10 in 10.0 mi South 12.7 mph 20.7 mph N/A   Clear
4:55 PM 77.0 °F 44.6 °F 32% 30.07 in 10.0 mi South 13.8 mph 23.0 mph N/A   Clear
5:55 PM 75.2 °F 44.6 °F 34% 30.06 in 10.0 mi SE 13.8 mph - N/A   Clear
6:55 PM 84.2 °F 42.8 °F 23% 30.04 in 10.0 mi SSE 16.1 mph 20.7 mph N/A   Clear
7:55 PM 71.6 °F 44.6 °F 38% 30.04 in 10.0 mi North - - N/A   Clear
9:55 PM 63.1 °F 45.9 °F 53% 30.05 in 10.0 mi SSE 8.1 mph - N/A   Clear
10:15 PM 61.7 °F 45.9 °F 56% 30.06 in 10.0 mi SSE 8.1 mph - N/A   Clear
10:35 PM 62.6 °F 45.7 °F 54% 30.05 in 10.0 mi SSE 9.2 mph - N/A   Clear
10:55 PM 63.5 °F 45.5 °F 52% 30.05 in 10.0 mi SSE 12.7 mph - N/A   Clear
11:15 PM 63.7 °F 45.1 °F 51% 30.04 in 10.0 mi SSE 13.8 mph - N/A   Clear
11:35 PM 63.0 °F 45.5 °F 53% 30.03 in 10.0 mi SSE 11.5 mph - N/A   Clear
11:55 PM 61.3 °F 45.9 °F 57% 30.03 in 10.0 mi SSE 10.4 mph - N/A   Clear